This demonstration page uses our WeatherBlox Daily Observations layout. Learn more.

Left ArrowRight Arrow

38.80484, -77.04692

Hourly Observations for May 11, 2015

Temp ( °F °C ) Dew Point ( °F °C ) Humidity (%) Winds ( mph kmh ) Pressure ( in mb ) Visibility ( mi km ) Precip ( " mm )
12:35 am 00:35 Cloudy 73 23 68 20 83 83 S 9 15 30.15 1021 10 16 N/A
12:52 am 00:52 Cloudy 73 22.8 68 20 84 84 SSE 9 15 30.14 1021 10 16 N/A
12:59 am 00:59 Cloudy 73 23 68 20 83 83 S 7 11 30.15 1021 9 14 N/A
1:52 am 01:52 Cloudy 72 22.2 68 20 87 87 S 7 11 30.12 1020 9 14 N/A
2:52 am 02:52 Partly Cloudy 72 22.2 68 20 87 87 SSE 3 6 30.11 1020 8 13 N/A
2:55 am 02:55 Mostly Cloudy 72 22 68 20 88 88 N N/A 30.12 1020 8 13 N/A
3:52 am 03:52 Cloudy 72 22.2 67 19.4 84 84 SSE 5 7 30.11 1020 8 13 N/A
4:27 am 04:27 Cloudy 72 22 66 19 83 83 SSE 6 9 30.12 1020 8 13 N/A
4:52 am 04:52 Cloudy 71 21.7 68 20 90 90 SSE 5 7 30.10 1019 7 11 N/A
5:52 am 05:52 Cloudy 71 21.7 67 19.4 87 87 SE 7 11 30.09 1019 8 13 N/A
6:52 am 06:52 Cloudy 71 21.7 67 19.4 87 87 SSE 5 7 30.12 1020 8 13 N/A
7:45 am 07:45 Cloudy 72 22 66 19 83 83 SE 3 6 30.12 1020 10 16 N/A
7:52 am 07:52 Cloudy 72 22.2 67 19.4 84 84 SE 3 6 30.12 1020 10 16 N/A
8:52 am 08:52 Cloudy 73 22.8 67 19.4 81 81 E 6 9 30.12 1020 9 14 N/A
9:50 am 09:50 Cloudy 73 23 68 20 83 83 ESE 6 9 30.09 1019 10 16 N/A
9:52 am 09:52 Cloudy 74 23.3 68 20 82 82 ESE 5 7 30.10 1019 10 16 N/A
10:28 am 10:28 Cloudy 75 24 70 21 83 83 E 3 6 30.09 1019 10 16 N/A
10:52 am 10:52 Cloudy 78 25.6 69 20.6 74 74 N N/A 30.09 1019 10 16 N/A
11:22 am 11:22 Mostly Cloudy 81 27 70 21 70 70 SSE 3 6 30.09 1019 10 16 N/A
11:34 am 11:34 Mostly Cloudy 81 27 68 20 66 66 N N/A 30.09 1019 10 16 N/A
11:52 am 11:52 Mostly Cloudy 81 27.2 68 20 65 65 N N/A 30.08 1019 10 16 N/A
12:52 pm 12:52 Mostly Cloudy 81 27.2 67 19.4 62 62 SE 13 20 30.06 1018 10 16 N/A
1:52 pm 13:52 Mostly Cloudy 80 26.7 66 18.9 62 62 ESE 13 20 30.04 1017 10 16 N/A
2:52 pm 14:52 Mostly Cloudy 80 26.7 68 20 67 67 SE 9 15 30.03 1017 10 16 N/A
3:52 pm 15:52 Mostly Cloudy 79 26.1 68 20 69 69 E 7 11 30.01 1016 10 16 N/A
4:52 pm 16:52 Mostly Cloudy 81 27.2 68 20 65 65 E 7 11 29.97 1015 10 16 N/A
5:01 pm 17:01 Mostly Cloudy 81 27 68 20 66 66 E 9 15 29.97 1015 10 16 N/A
5:08 pm 17:08 Mostly Cloudy 81 27 66 19 62 62 E 10 17 29.97 1015 10 16 N/A
5:52 pm 17:52 Mostly Cloudy 80 26.7 68 20 67 67 ESE 7 11 29.96 1015 10 16 N/A
6:52 pm 18:52 Mostly Cloudy 81 27.2 66 18.9 61 61 N N/A 29.96 1015 10 16 N/A
7:52 pm 19:52 Mostly Cloudy 78 25.6 66 18.9 67 67 N N/A 29.96 1015 10 16 N/A
8:52 pm 20:52 Partly Cloudy 77 25 69 20.6 77 77 N N/A 29.98 1015 10 16 N/A
9:52 pm 21:52 Partly Cloudy 75 23.9 67 19.4 76 76 SE 5 7 29.98 1015 10 16 N/A
10:52 pm 22:52 Partly Cloudy 74 23.3 68 20 82 82 S 6 9 29.97 1015 10 16 N/A
11:52 pm 23:52 Mostly Cloudy 74 23.3 68 20 82 82 N N/A 29.96 1015 10 16 N/A

Powered by AerisWeather